Regional Weather Roundup
Issued by NWS Lake Charles, LA

Home | Current Version | Previous Version | Text Only | Print | Product List | Glossary On
Versions: 1 2 3 4 5 6 7 8 9 10 11 12 13 14 15 16 17 18 19 20 21 22 23 24 25 26 27 28 29 30 31 32 33 34 35 36 37 38 39 40 41 42 43 44 45 46 47 48 49 50
000
ASUS44 KLCH 020910
RWRLCH
RWRLCH
REGIONAL WEATHER ROUNDUP
NATIONAL WEATHER SERVICE LAKE CHARLES LA
400 AM CDT WED SEP 02 2015

Note: "fair" indicates few or no clouds below 12,000 feet with no
significant weather and/or obstructions to visibility.


ACROSS SOUTHEAST TEXAS

CITY           SKY/WX    TMP DP  RH WIND       PRES   REMARKS
BEAUMONT       LGT RAIN  76  74  93 S3        30.03S
BEAUMONT CITY  LGT RAIN  74  73  95 CALM      30.04F
ORANGE         LGT RAIN N/A N/A N/A CALM      30.05F
JASPER         CLOUDY    75  72  90 CALM      30.07S
$$

ACROSS CENTRAL LOUISIANA

CITY           SKY/WX    TMP DP  RH WIND       PRES   REMARKS
LEESVILLE      CLOUDY    72  71  94 S2        30.04F
FULLERTON        N/A     72  71  97 CALM      30.03F
ALEXANDRIA INT CLOUDY    74  72  93 CALM      30.04S
ESLER FIELD    CLOUDY    75  71  87 CALM      30.05F
DERIDDER       PTSUNNY   72  71  95 CALM      30.07S
OAKDALE        LGT RAIN  72  71  96 CALM      30.05S
OPELOUSAS      DRIZZLE   72  72  98 CALM      30.04F
$$

ACROSS SOUTHWEST AND SOUTH CENTRAL LOUISIANA

CITY           SKY/WX    TMP DP  RH WIND       PRES   REMARKS
SULPHUR        LGT RAIN  74  74  99 CALM      30.05S
LAKE CHARLES   LGT RAIN  75  73  93 CALM      30.04S
CHENNAULT INT  LGT RAIN  73  72  94 CALM      30.05S
CAMERON PHI    CLOUDY    73  68  83 NE7       30.06S
DEQUINCY         N/A     72  72 100 CALM      30.05S
JENNINGS       LGT RAIN  73  73  98 CALM      30.05R
LAFAYETTE      CLOUDY    75  72  90 CALM      30.04S
NEW IBERIA     CLOUDY    76  73  91 N3        30.04S FOG
ABBEVILLE        N/A     73  73  98 N3        30.04S
PATTERSON      CLOUDY    75  73  94 CALM      30.05R
SALT POINT       N/A     78  76  93 N3        30.01S
$$

SELECTED SITES ACROSS THE REGION

CITY           SKY/WX    TMP DP  RH WIND       PRES   REMARKS
HOUSTON BUSH   MOCLDY    75  72  90 N6        30.02S
HOUSTON HOBBY  MOCLDY    76  72  87 CALM      30.00F
GALVESTON      TSTM      76  73  91 SW6       30.04R
COLLEGE STAT   CLEAR     72  69  90 CALM      30.04F
CONROE         MOCLDY    71  69  93 N6        30.05R
HUNTSVILLE     PTCLDY    70  68  93 CALM      30.05S
LUFKIN         CLOUDY    71  70  96 CALM      30.06S
SHREVEPORT     CLOUDY    73  69  87 CALM      30.05S
MONROE         CLOUDY    74  70  87 CALM      30.06S
NATCHEZ MS     CLOUDY    73  68  83 CALM      30.06S
BATON ROUGE    CLOUDY    77  71  82 NW5       30.03F
N.O. INTL ARPT CLOUDY    80  71  74 CALM      30.03R
SLIDELL        CLOUDY    74  73  97 N6        30.02F
$$

MARINE REPORTS

STATION/POSITION TIME  TEMP    WIND        PRES    VSBY  WAVE
                       AIR SEA DIR/SP/G                  HT/PER
                 (UTC) (F)     (DEG/KT/KT) (MB)    (MI)  (FT/S)
BUOY 30 S HIGH I 0850   82 85  110/ 14/ 16 1016.1F         3/ 5
SEA RIM ST PARK  0900   72      40/  3/  3 1017.4F
PORT ARTHUR      0800      85  110/  7/ 10 1017.4R
SABINE PASS N    0800   74 84  180/ 11/ 18 1018.0R
TEXAS POINT      NOT AVBL
CALCASIEU PASS   0800   74 84   40/  6/  7 1016.1F
LK CHARLES BEACH 0800   75 85                N/A
MARSH ISLAND     0800   83     140/ 10/ 11   N/A           0
FRESH WATER LOCK 0800   80 84  100/  4/  5 1016.4F
AMERADA PASS     0800   77 84   CALM  /  1 1016.5S
$$


USA.gov is the U.S. government's official web portal to all federal, state and local government web resources and services.